[Iaude] MPEC N96: 2024 NB2 [a=2.12,e=0.58,i=5.0,H=25.0]
    mpec at cfa.harvard.edu 
    mpec at cfa.harvard.edu
       
    Mon Jul  8 07:38:25 EDT 2024
    
    
  
M.P.E.C. 2024-N96                                  Issued 2024 July 8, 11:36 UT
     The Minor Planet Electronic Circulars contain information on unusual
         minor planets, routine data on comets and natural satellites,
         and occasional editorial announcements.  They are published
    on behalf of Division F of the International Astronomical Union by the
          Minor Planet Center, Smithsonian Astrophysical Observatory,
                          Cambridge, MA 02138, U.S.A.
			  
             Prepared using the Tamkin Foundation Computer Network
                              MPC at CFA.HARVARD.EDU
            URL https://www.minorplanetcenter.net/    ISSN 1523-6714
                                    2024 NB2                                    
Observations:
     K24N02B* C2024 07 06.48058820 05 16.719-41 07 50.82         20.13wXEN096F51
     K24N02B  C2024 07 06.48900520 05 24.064-41 07 51.96         20.20wXEN096F51
     K24N02B  C2024 07 06.50586020 05 38.855-41 07 53.28         20.25wXEN096F51
     K24N02B |C2024 07 07.22553020 18 06.710-41 05 10.30         20.0 GVEN096807
     K24N02B |C2024 07 07.22773020 18 09.000-41 05 09.80         19.7 GVEN096807
     K24N02B |C2024 07 07.22993020 18 11.330-41 05 09.30         19.9 GVEN096807
     K24N02B KC2024 07 08.46874920 45 24.389-40 43 04.15         19.6 GVEN096474
     K24N02B KC2024 07 08.47014420 45 26.436-40 43 01.67         19.5 GVEN096474
     K24N02B KC2024 07 08.47153720 45 28.478-40 42 59.80         19.5 GVEN096474
     K24N02B KC2024 07 08.47293120 45 30.607-40 42 57.53         19.6 GVEN096474
     K24N02B KC2024 07 08.47572020 45 34.706-40 42 53.39         19.7 GVEN096474
Observer details:
474 Mount John Observatory, Lake Tekapo.  Observers A. C. Gilmore, P. M.
    Kilmartin.  Measurer P. M. Kilmartin.  0.6-m f/6.3 Reflector + CCD.
807 Cerro Tololo Observatory, La Serena.  Observers T. Linder, R. Holmes.
    0.61-m f/6.8 Ritchey-Chretien + CCD.
F51 Pan-STARRS 1, Haleakala.  Observers J. Herman, T. Lowe, P. Minguez, A.
    Schultz, I. Smith.  Measurers K. Chambers, T. de Boer, J. Fairlamb, H.
    Gao, M. Huber, C.-C. Lin, E. Magnier, Y. Ramanjooloo, R. Wainscoat, R.
    Weryk.  1.8-m Ritchey-Chretien + CCD.
Orbital elements:
2024 NB2                                                 Earth MOID = 0.0063 AU
Epoch 2024 Mar. 31.0 TT = JDT 2460400.5                 MPC                     
M 314.35520              (2000.0)            P               Q                  
n   0.31995093     Peri.   45.57860     +0.95804391     +0.27595930             
a   2.1171281      Node   298.25982     -0.28156068     +0.85556505             
e   0.5824493      Incl.    5.04449     -0.05362323     +0.43801245             
P   3.08           H   25.09          G   0.15           U   9                  
Residuals in seconds of arc
240706 F51  0.0   0.0     240707 807  0.2-  0.0     240708 474  0.4-  0.1-
240706 F51  0.1-  0.0     240707 807  0.0   0.1-    240708 474  0.4+  0.1+
240706 F51  0.2+  0.0     240708 474  0.1-  0.2-    240708 474  0.2+  0.1-
240707 807  0.1+  0.1+    240708 474  0.2-  0.2+
Ephemeris:
2024 NB2                 a,e,i = 2.12, 0.58, 5                   q = 0.8840
Date    TT    R. A. (2000) Decl.     Delta      r    Elong.  Phase     V
2024 06 08    18 24 03.3 -36 28 44   0.3035  1.3017   158.2    16.9    24.0
...
2024 06 23    18 44 38.9 -38 34 36   0.1681  1.1780   162.9    14.7    22.4
...
2024 07 01    19 12 55.9 -40 06 02   0.1034  1.1153   161.7    16.6    21.3
...
2024 07 07    20 13 57.3 -41 05 40   0.05868 1.0708   156.5    22.2    20.1
2024 07 08    20 34 00.7 -40 55 27   0.05179 1.0636   154.4    24.4    19.9
2024 07 09    20 59 42.0 -40 22 11   0.04521 1.0565   151.3    27.6    19.7
...
2024 07 15    01 50 41.4 -03 10 23   0.02731 1.0160    88.2    90.3    20.5
...
2024 07 23    04 37 16.9 +28 14 29   0.07521 0.9680    48.8   127.8    24.9
...
2024 08 07    05 38 14.2 +33 44 57   0.1900  0.9040    50.1   120.7    26.2
A. U. Tomatic                (C) Copyright 2024 MPC           M.P.E.C. 2024-N96
    
    
More information about the Iaude
mailing list